TimeCST,TemperatureF,Dew PointF,Humidity,Sea Level PressureIn,VisibilityMPH,Wind Direction,Wind SpeedMPH,Gust SpeedMPH,PrecipitationIn,Events,Conditions,WindDirDegrees,DateUTC
12:15 AM,1.6,-1.8,86,30.26,10.0,Calm,Calm,-,N/A,,Clear,0,2013-02-09 06:15:00
12:35 AM,1.4,-2.0,86,30.26,10.0,Calm,Calm,-,N/A,,Clear,0,2013-02-09 06:35:00
12:55 AM,1.2,-2.2,86,30.24,10.0,ENE,3.5,-,N/A,,Scattered Clouds,70,2013-02-09 06:55:00
1:15 AM,0.9,-2.4,86,30.24,10.0,Calm,Calm,-,N/A,,Mostly Cloudy,0,2013-02-09 07:15:00
1:35 AM,2.5,-0.8,86,30.23,10.0,Calm,Calm,-,N/A,,Scattered Clouds,0,2013-02-09 07:35:00
1:55 AM,1.8,-1.7,86,30.22,10.0,Calm,Calm,-,N/A,,Scattered Clouds,0,2013-02-09 07:55:00
2:15 AM,3.9,0.5,86,30.22,10.0,Calm,Calm,-,N/A,,Mostly Cloudy,0,2013-02-09 08:15:00
2:35 AM,6.6,3.6,87,30.21,10.0,East,3.5,-,N/A,,Overcast,100,2013-02-09 08:35:00
2:55 AM,11.3,8.2,87,30.20,10.0,East,3.5,-,N/A,,Overcast,100,2013-02-09 08:55:00
3:15 AM,11.3,8.2,87,30.19,10.0,Calm,Calm,-,N/A,,Mostly Cloudy,0,2013-02-09 09:15:00
3:35 AM,12.2,8.6,85,30.17,10.0,East,3.5,-,N/A,,Overcast,100,2013-02-09 09:35:00
3:55 AM,13.1,9.1,84,30.17,10.0,Calm,Calm,-,N/A,,Overcast,0,2013-02-09 09:55:00
4:15 AM,13.1,9.5,86,30.16,10.0,Calm,Calm,-,N/A,,Overcast,0,2013-02-09 10:15:00
4:35 AM,14.5,10.8,85,30.15,10.0,East,4.6,-,N/A,,Overcast,90,2013-02-09 10:35:00
4:55 AM,14.9,11.3,86,30.15,10.0,Calm,Calm,-,N/A,,Overcast,0,2013-02-09 10:55:00
5:15 AM,14.9,11.8,88,30.15,10.0,Calm,Calm,-,N/A,,Overcast,0,2013-02-09 11:15:00
5:35 AM,15.4,12.0,86,30.16,10.0,Calm,Calm,-,N/A,,Overcast,0,2013-02-09 11:35:00
5:55 AM,15.6,12.2,86,30.15,10.0,Calm,Calm,-,N/A,,Overcast,0,2013-02-09 11:55:00
6:15 AM,15.6,12.2,86,30.15,10.0,Calm,Calm,-,N/A,,Overcast,0,2013-02-09 12:15:00
6:35 AM,15.4,12.6,88,30.14,10.0,Calm,Calm,-,N/A,,Overcast,0,2013-02-09 12:35:00
6:55 AM,16.2,12.4,85,30.13,10.0,Calm,Calm,-,N/A,,Overcast,0,2013-02-09 12:55:00
7:15 AM,17.4,13.5,84,30.11,10.0,SE,3.5,-,N/A,,Overcast,130,2013-02-09 13:15:00
7:35 AM,18.3,14.4,85,30.11,10.0,Calm,Calm,-,N/A,,Overcast,0,2013-02-09 13:35:00
7:55 AM,19.8,16.2,86,30.11,10.0,South,5.8,-,N/A,,Overcast,180,2013-02-09 13:55:00
8:15 AM,20.3,16.7,86,30.09,10.0,ESE,3.5,-,N/A,,Overcast,110,2013-02-09 14:15:00
8:35 AM,20.1,16.7,87,30.10,10.0,Calm,Calm,-,N/A,,Overcast,0,2013-02-09 14:35:00
8:55 AM,21.0,17.2,85,30.10,10.0,Calm,Calm,-,N/A,,Overcast,0,2013-02-09 14:55:00
9:15 AM,21.6,18.0,86,30.10,10.0,Calm,Calm,-,N/A,,Overcast,0,2013-02-09 15:15:00
9:35 AM,21.7,18.0,85,30.10,10.0,Calm,Calm,-,N/A,,Overcast,0,2013-02-09 15:35:00
9:55 AM,21.7,17.6,84,30.11,10.0,West,3.5,-,N/A,,Overcast,260,2013-02-09 15:55:00
10:15 AM,22.5,18.1,83,30.10,10.0,SW,3.5,-,N/A,,Overcast,230,2013-02-09 16:15:00
10:35 AM,23.7,19.4,84,30.10,10.0,SW,6.9,-,N/A,,Overcast,220,2013-02-09 16:35:00
10:55 AM,24.3,19.4,82,30.09,10.0,South,6.9,-,N/A,,Overcast,190,2013-02-09 16:55:00
11:15 AM,24.8,20.1,82,30.08,10.0,SSW,6.9,-,N/A,,Overcast,210,2013-02-09 17:15:00
11:35 AM,25.5,20.5,81,30.07,10.0,SSW,9.2,-,N/A,,Overcast,210,2013-02-09 17:35:00
11:55 AM,25.9,21.0,82,30.07,10.0,SW,6.9,-,N/A,,Overcast,220,2013-02-09 17:55:00
12:15 PM,26.4,21.2,81,30.06,10.0,SW,9.2,-,N/A,,Overcast,220,2013-02-09 18:15:00
12:35 PM,27.0,21.9,81,30.05,10.0,SSW,9.2,-,N/A,,Overcast,210,2013-02-09 18:35:00
12:55 PM,27.5,22.1,80,30.04,10.0,SSW,8.1,-,N/A,,Overcast,210,2013-02-09 18:55:00
1:15 PM,27.9,22.5,80,30.03,10.0,SSW,12.7,17.3,N/A,,Overcast,200,2013-02-09 19:15:00
1:35 PM,28.0,22.6,80,30.02,10.0,SW,10.4,-,N/A,,Overcast,220,2013-02-09 19:35:00
1:55 PM,28.2,22.8,80,30.02,10.0,SSW,9.2,-,N/A,,Overcast,210,2013-02-09 19:55:00
2:15 PM,28.8,23.0,79,30.01,10.0,SSW,8.1,-,N/A,,Overcast,210,2013-02-09 20:15:00
2:35 PM,29.1,23.0,78,30.01,10.0,SW,9.2,-,N/A,,Overcast,220,2013-02-09 20:35:00
2:55 PM,29.3,23.2,78,30.01,10.0,SW,9.2,-,N/A,,Overcast,220,2013-02-09 20:55:00
3:15 PM,29.3,23.4,78,30.01,10.0,SSW,8.1,-,N/A,,Overcast,210,2013-02-09 21:15:00
3:35 PM,29.3,23.2,78,30.01,10.0,SW,6.9,-,N/A,,Overcast,220,2013-02-09 21:35:00
3:55 PM,29.3,23.5,79,30.00,10.0,SSW,5.8,-,N/A,,Overcast,210,2013-02-09 21:55:00
4:15 PM,29.3,23.5,79,30.00,10.0,SSW,6.9,-,N/A,,Overcast,200,2013-02-09 22:15:00
4:35 PM,29.3,23.9,80,30.00,10.0,SSW,6.9,-,N/A,,Overcast,200,2013-02-09 22:35:00
4:55 PM,29.3,24.3,81,29.99,10.0,South,8.1,-,N/A,,Overcast,190,2013-02-09 22:55:00
5:15 PM,29.1,24.3,82,29.99,10.0,South,5.8,-,N/A,,Overcast,190,2013-02-09 23:15:00
5:35 PM,29.1,24.4,83,29.99,10.0,SSW,6.9,-,N/A,,Overcast,200,2013-02-09 23:35:00
5:55 PM,28.9,24.3,83,30.00,10.0,South,4.6,-,N/A,,Overcast,190,2013-02-09 23:55:00
6:15 PM,28.8,24.6,84,30.00,10.0,South,5.8,-,N/A,,Overcast,190,2013-02-10 00:15:00
6:35 PM,28.8,25.2,86,30.00,10.0,South,4.6,-,N/A,,Overcast,180,2013-02-10 00:35:00
6:55 PM,28.4,25.3,88,30.00,10.0,South,4.6,-,N/A,,Overcast,180,2013-02-10 00:55:00
7:15 PM,28.2,25.3,89,30.00,10.0,South,3.5,-,N/A,,Overcast,170,2013-02-10 01:15:00
7:35 PM,28.2,25.5,90,30.00,7.0,Calm,Calm,-,N/A,,Overcast,0,2013-02-10 01:35:00
7:55 PM,28.2,25.7,90,30.00,7.0,Calm,Calm,-,N/A,,Overcast,0,2013-02-10 01:55:00
8:15 PM,28.4,25.7,90,30.00,7.0,South,5.8,-,N/A,,Overcast,170,2013-02-10 02:15:00
8:35 PM,28.2,25.5,90,30.00,5.0,South,6.9,-,N/A,,Overcast,170,2013-02-10 02:35:00
8:55 PM,27.9,25.3,90,30.00,7.0,South,5.8,-,N/A,,Overcast,170,2013-02-10 02:55:00
9:15 PM,27.9,25.0,89,29.99,7.0,South,5.8,-,N/A,,Overcast,180,2013-02-10 03:15:00
9:35 PM,27.9,24.8,88,30.00,7.0,South,5.8,-,N/A,,Overcast,190,2013-02-10 03:35:00
9:55 PM,27.9,25.0,89,29.99,7.0,South,5.8,-,N/A,,Overcast,170,2013-02-10 03:55:00
10:15 PM,27.3,24.6,90,29.99,7.0,South,6.9,-,N/A,,Overcast,170,2013-02-10 04:15:00
10:35 PM,26.6,23.9,90,29.99,7.0,South,6.9,-,N/A,,Overcast,170,2013-02-10 04:35:00
10:55 PM,26.6,23.9,90,30.00,7.0,South,6.9,-,N/A,,Overcast,190,2013-02-10 04:55:00
11:15 PM,26.6,23.7,89,29.99,7.0,South,6.9,-,N/A,,Overcast,190,2013-02-10 05:15:00
11:35 PM,26.4,23.5,89,29.99,7.0,South,5.8,-,N/A,,Overcast,190,2013-02-10 05:35:00
11:55 PM,26.4,23.5,89,29.99,7.0,South,5.8,-,N/A,,Overcast,180,2013-02-10 05:55:00